{"data":{"norad_id":57915,"intl_designator":"2023-147C","name":"STARLINK-30454","alt_names":[],"object_type":"PAYLOAD","status":"ACTIVE","operator":null,"country":"US","launch_date":"2023-09-24","launch_site_code":"AFETR","launch_vehicle":null,"mission":null,"orbit_class":"UNKNOWN","rcs_meters":null,"size_class":null,"mass_kg":null,"dimensions":null,"purposes":["comms"],"wikipedia_slug":null,"has_3d_model":false,"image_url":null,"decayed_at":null,"tle_current":{"epoch":"2026-05-25T00:26:45.826080Z","epoch_age_seconds":76543,"freshness":"FRESH","line1":"1 57915U 23147C   26145.01858595 -.00002297  00000+0 -74004-4 0  9993","line2":"2 57915  43.0023 253.9655 0001180 265.6595  94.4122 15.27569177148278","mean_motion":15.27569177,"eccentricity":0.000118,"inclination_deg":43.0023,"raan_deg":253.9655,"arg_perigee_deg":265.6595,"mean_anomaly_deg":94.4122,"bstar":-7.4004e-5,"rev_number":14827,"period_min":94.267416604204,"perigee_km":482.27188040306,"apogee_km":483.89112797005,"semimajor_km":6861.2185041866,"source":"CELESTRAK","updated_at":"2026-05-25T13:38:18.456778Z"}}}